Portada
METAR-TAF:

METAR-TAF

Aeropuertos :

Tabas, Irán

latitud: 33-36N, longitud: 056-55E, altitud: 710 m

Observación

El informe se hizo hace 21 minutos, a las 02:00 UTC
Viento 4 kt del este-sureste
Temperatura 31°C
Humedad 14%
Presión 1008 hPa

METAR: OIMT 010200Z AUTO 12004KT //// // ////// 31/00 Q1008

Hora: 06:51 (02:21 UTC)


TAF: falta

Observaciones y pronósticos meteorológicos de más de 4000 aeropuertos (mensajes METAR y TAF).

Los puntos amarillos y rojos representan las estaciones disponibles.

Ponga el ratón en el punto deseado para ver el nombre de la estación.

Haga clic para ver las observaciones y los pronósticos meteorológicos.

Para cambiar el mapa : haga clic en los botones verdes con una cruz de color negro para hacer un zoom, en el botón verde con un guión para alejar o en las flechas verdes para mapas adyacentes.


METAR-TAF: